Hourly Data Report for October 31, 2016

All times are specified in Local Standard Time (LST). Add 1 hour to adjust for Daylight Saving Time where and when it is observed.

FREDERICTON
NEW BRUNSWICK

45°52'08.000" N
66°32'14.000" W
20.70 m
8101505
71700
YFC

Download Data

Hourly Data (October 2016)
Hourly Data Report for October 31, 2016
Temp Definition
°C
Dew Point Temp Definition
°C
Rel Hum Definition
%
Wind Dir Definition
10's deg

Wind Spd Definition
km/h
Visibility Definition
km
Stn Press Definition
kPa
Hmdx Definition


Wind Chill Definition


Weather Definition


TIME
00:00 Legend Double Dagger 6.1 4.3 88 30 5 16.1 100.83     LegendNANA
01:00 Legend Double Dagger 6.3 3.7 83 30 15 16.1 100.82     LegendNANA
02:00 Legend Double Dagger 6.1 3.4 83 30 8 16.1 100.84     LegendNANA
03:00 Legend Double Dagger 5.8 3.5 85 27 8 16.1 100.86     LegendNANA
04:00 Legend Double Dagger 5.7 3.2 84 30 8 16.1 100.87     LegendNANA
05:00 Legend Double Dagger 5.6 3.0 83 32 11 16.1 100.91     LegendNANA
06:00 Legend Double Dagger 5.6 2.9 83 32 11 16.1 100.94     LegendNANA
07:00 Legend Double Dagger 5.4 2.9 84 33 11 16.1 101.00     LegendNANA
08:00 Legend Double Dagger 5.5 2.4 80 32 18 16.1 101.11     LegendNANA
09:00 Legend Double Dagger 5.9 2.2 77 33 24 16.1 101.19     LegendNANA
10:00 Legend Double Dagger 6.2 1.8 73 33 22 16.1 101.25     LegendNANA
11:00 Legend Double Dagger 6.4 1.7 72 33 22 16.1 101.32     LegendNANA
12:00 Legend Double Dagger 7.3 1.9 68 33 18 16.1 101.32     LegendNANA
13:00 Legend Double Dagger 8.1 1.9 65 34 26 16.1 101.32     LegendNANA
14:00 Legend Double Dagger 8.3 1.4 62 33 21 16.1 101.36     LegendNANA
15:00 Legend Double Dagger 8.0 1.3 63 33 24 16.1 101.44     LegendNANA
16:00 Legend Double Dagger 7.4 1.4 66 33 15 16.1 101.53     LegendNANA
17:00 Legend Double Dagger 6.6 1.4 69 32 17 16.1 101.63     LegendNANA
18:00 Legend Double Dagger 6.2 2.1 75 32 21 16.1 101.74     LegendNANA
19:00 Legend Double Dagger 6.1 1.8 74 32 21 16.1 101.83     LegendNANA
20:00 Legend Double Dagger 5.6 1.5 75 32 22 16.1 101.91     LegendNANA
21:00 Legend Double Dagger 4.9 1.2 77 32 15 16.1 102.00     LegendNANA
22:00 Legend Double Dagger 4.9 1.2 77 31 22 16.1 102.06     LegendNANA
23:00 Legend Double Dagger 4.6 1.1 78 32 18 16.1 102.11     LegendNANA

Notes on Data Quality.

Legend

  • E = Estimated
  • M = Missing
  • NA = Not Available
  • ‡ = Partner data that is not subject to review by the National Climate Archives
Date modified: